View from above orbital plane
|
View from above satellite
|
Ground track
|
The orbit data is extracted from the following two-line orbital elements,
1 37984U 93036BQK 20359.15207551 .00032224 00000-0 16560-2 0 9990
2 37984 73.8794 159.4849 0021305 265.6572 94.2188 15.16139333586001
Epoch (UTC): | 24 December 2020 03:38:59 |
Eccentricity: | 0.0021305 |
inclination: | 73.8794° |
perigee height: | 503 km |
apogee height: | 532 km |
right ascension of ascending node: | 159.4849° |
argument of perigee: | 265.6572° |
revolutions per day: | 15.16139333 |
mean anomaly at epoch: | 94.2188° |
orbit number at epoch: | 58600 |
The dashed part of the orbit path shows where the satellite is in the earth's shadow,
|
|